Regional Weather Roundup
Issued by NWS Little Rock, AR

Home | Current Version | Previous Version | Text Only | Print | Product List | Glossary Off
Versions: 1 2 3 4 5 6 7 8 9 10 11 12 13 14 15 16 17 18 19 20 21 22 23 24 25 26 27 28 29 30 31 32

000
ASUS44 KLZK 261105
RWRLZK

WEATHER ROUNDUP FOR ARKANSAS
NATIONAL WEATHER SERVICE LITTLE ROCK AR
600 AM CDT SAT MAY 26 2018

NOTE: "FAIR" INDICATES FEW OR NO CLOUDS BELOW 12,000 FEET WITH NO
SIGNIFICANT WEATHER AND/OR OBSTRUCTIONS TO VISIBILITY.

ARZ001-003-010-029-261200-
NORTHWEST ARKANSAS

CITY           SKY/WX    TMP DP  RH WIND       PRES   REMARKS
FAYETTEVILLE   CLOUDY    61  61 100 S3        29.87R FOG
FORT SMITH     MOCLDY    69  67  93 CALM      29.84S
HARRISON       PTCLDY    63  63 100 NW3       29.87R
BENTONVILLE    FOG       64  64 100 W5        29.89R VSB 1
ROGERS         CLOUDY    63  62  97 W3        29.88R FOG
SILOAM SPGS    CLEAR     63  63 100 CALM      29.88R
HIGHFILL       CLOUDY    64  62  93 W3        29.88R FOG
SPRINGDALE     CLEAR     64  64 100 CALM      29.88
$$

ARZ004-005-016-261200-
NORTH CENTRAL ARKANSAS

CITY           SKY/WX    TMP DP  RH WIND       PRES   REMARKS
BATESVILLE     CLOUDY    66  66 100 CALM      29.85R
FLIPPIN        CLOUDY    66  66 100 CALM      29.86R FOG
MTN HOME       CLOUDY    66  66 100 CALM      29.85R
$$

ARZ040-041-261200-
WEST CENTRAL ARKANSAS

CITY           SKY/WX    TMP DP  RH WIND       PRES   REMARKS
MENA           CLOUDY   N/A N/A N/A CALM      29.86S
MOUNT IDA      PTCLDY    63  63 100 CALM      29.82S
$$

ARZ009-017-025-026-028-261200-
NORTHEAST ARKANSAS

CITY           SKY/WX    TMP DP  RH WIND       PRES   REMARKS
CORNING        PTSUNNY   70  70 100 S5        29.85R FOG
JONESBORO      FAIR      70  70 100 S5        29.84S
NEWPORT        FAIR      70  69  97 S6        29.85R
WALNUT RIDGE     N/A     70  70 100 S5        29.84S FOG
BLYTHEVILLE    FAIR      72  68  87 S8        29.86R
$$

ARZ022-023-033-042-044-261200-
CENTRAL ARKANSAS

CITY           SKY/WX    TMP DP  RH WIND       PRES   REMARKS
LITTLE ROCK    CLOUDY    67  67 100 SE5       29.84R FOG
N LITTLE ROCK    N/A     67  67  98 CALM      29.80R
JACKSONVILLE   MOCLDY    68  68 100 CALM      29.83R
CONWAY           N/A     70  70 100 CALM      29.83R FOG
SEARCY         FAIR      71  71 100 S3        29.84S
HOT SPRINGS    CLEAR     69  68  96 CALM      29.85R
RUSSELLVILLE   MOCLDY    68  68 100 CALM      29.83R
CLINTON        DRIZZLE   68  68 100 CALM      29.84F
$$

ARZ036-261200-
EAST ARKANSAS

CITY           SKY/WX    TMP DP  RH WIND       PRES   REMARKS
WEST MEMPHIS   FAIR      70  70 100 S3        29.86R
$$

ARZ050-053-066-070-073-261200-
SOUTHWEST ARKANSAS

CITY           SKY/WX    TMP DP  RH WIND       PRES   REMARKS
ARKADELPHIA    FOG       68  67  96 CALM      29.85S VSB 3/4
CAMDEN         FAIR      68  64  88 CALM      29.83F FOG
TEXARKANA      MOCLDY    66  66 100 S3        29.84R
EL DORADO      FAIR      68  68 100 SE3       29.85F
DE QUEEN       FOG       65  65 100 CALM      29.81S VSB 1
$$

ARZ056-057-069-261200-
SOUTHEAST ARKANSAS

CITY           SKY/WX    TMP DP  RH WIND       PRES   REMARKS
PINE BLUFF     MOCLDY    69  67  93 SE5       29.85S
STUTTGART      MOCLDY    71  68  90 S7        29.85F

$$






USA.gov is the U.S. government's official web portal to all federal, state and local government web resources and services.